Location: Newark
(44.6028°N, 124.0883°W)
Time: 06:36:58
(UTC+00:00)

N. Korean satellite - Pass Details

Date: 22 October 2020
Orbit: 453 x 504 km, 97.2° (Epoch: 30 November)

Event Time Altitude Azimuth Distance (km) Brightness Sun altitude
Rises 13:50:50 0° 12° (NNE) 2,494 10.3 -9.7°
Reaches altitude 10° 13:52:53 10° 13° (NNE) 1,609 9.3 -9.3°
Maximum altitude 13:56:20 86° 103° (ESE) 462 6.5 -8.7°
Drops below altitude 10° 13:59:44 10° 192° (SSW) 1,584 9.1 -8.1°
Sets 14:01:45 0° 193° (SSW) 2,451 10.1 -7.8°
